Regional Weather Roundup
Issued by NWS Glasgow, MT

Home | Current Version | Previous Version | Text Only | Print | Product List | Glossary On
Versions: 1 2 3 4 5 6 7 8 9 10 11 12 13 14 15 16 17 18 19 20 21 22 23 24 25 26 27 28 29 30 31 32 33 34 35 36 37 38 39 40 41 42 43 44 45 46 47 48 49 50
000
ASUS45 KGGW 262115
RWRGGW
HOURLY REGIONAL WEATHER ROUNDUP FOR NORTHEAST MONTANA
NATIONAL WEATHER SERVICE GLASGOW MONTANA
300 PM MDT FRI MAY 26 2017

NOTE: "FAIR" INDICATES FEW OR NO CLOUDS BELOW 12,000 FEET WITH NO
SIGNIFICANT WEATHER AND/OR OBSTRUCTIONS TO VISISBILITY.

NORTHEAST MONTANA


CITY           SKY/WX    TMP DP  RH WIND       PRES   REMARKS
GLASGOW        CLOUDY    68  28  22 W15       29.82R
PLENTYWOOD       N/A     63  28  26 NW21G31     N/A
WOLF POINT     CLOUDY    67  31  26 NW12G23   29.80S
JORDAN           N/A     66  32  28 W14G21    29.85F
WINNETT          N/A     64  26  23 W12G20      N/A
SIDNEY         MOSUNNY   67  32  27 NW22G30   29.79S
GLENDIVE       CLOUDY    65  32  29 NW13      29.83F
MALTA            N/A     59  39  47 W12G24      N/A
SCOBEY           N/A     63  32  31 NW17      29.80
OPHEIM           N/A     57  34  41 N14       29.68R

FORT PECK REPORTS


CITY           SKY/WX    TMP DP  RH WIND       PRES   REMARKS
FORT PECK        N/A     66  38  35 SW16G24     N/A
THE PINES        N/A     64  30  27 W3G12       N/A

SOUTHEAST MONTANA


CITY           SKY/WX    TMP DP  RH WIND       PRES   REMARKS
BILLINGS       CLOUDY    62  32  32 VRB5      29.91S
MILES CITY     CLOUDY    67  27  22 NW16      29.86R
BAKER          CLOUDY    65  34  31 NW17G23   29.86S
LIVINGSTON     CLOUDY    60  35  39 NE15      29.91S

CENTRAL MONTANA


CITY           SKY/WX    TMP DP  RH WIND       PRES   REMARKS
HAVRE          CLOUDY    70  31  23 W12       29.85F
LEWISTOWN      CLOUDY    59  34  39 W9        29.93F
GREAT FALLS    CLOUDY    60  34  37 SE5       29.91F
CUT BANK       MOSUNNY   64  31  28 N9G21     29.90S
HELENA         MOSUNNY   66  30  26 N6        29.92S
BUTTE          CLOUDY    56  29  35 NW15      29.94R
BOZEMAN        CLOUDY    59  38  45 NW8       29.91R

WESTERN MONTANA


CITY           SKY/WX    TMP DP  RH WIND       PRES   REMARKS
MISSOULA       MOSUNNY   67  40  37 W15G22    29.92S
KALISPELL      NOT AVBL

NORTH DAKOTA


CITY           SKY/WX    TMP DP  RH WIND       PRES   REMARKS
WILLISTON      CLOUDY    68  33  27 NW21G32   29.77S
DICKINSON      PTSUNNY   67  32  27 W20G30    29.80S
MINOT          CLOUDY    68  41  37 W20G28    29.72S
BISMARCK       CLOUDY    66  41  40 NW12      29.79R

SOUTHERN SASKATCHEWAN


CITY           SKY/WX    TMP DP  RH WIND       PRES   REMARKS
REGINA         PTSUNNY   66  36  32 NW29G36   29.67S
MOOSE JAW      PTSUNNY   66  36  32 NW22G32   29.70F
ESTEVAN        PTSUNNY   63  36  36 NW20G28   29.70S
SWIFT CURRENT  CLOUDY    54  45  71 W8        29.78F




USA.gov is the U.S. government's official web portal to all federal, state and local government web resources and services.